Regional Weather Roundup
Issued by NWS

Home | Current Version | Previous Version | Text Only | Print | Product List | Glossary Off
Versions: 1 2 3 4 5 6 7 8 9 10 11 12 13 14 15 16 17 18 19 20 21 22 23 24 25 26 27 28 29 30 31 32 33 34 35 36 37 38 39 40 41 42 43 44 45 46 47 48 49 50

000
ASUS43 KOAX 312102
RWRNE

WEATHER ROUNDUP FOR NEBRASKA
NATIONAL WEATHER SERVICE OMAHA NE
400 PM CDT THU JUL 31 2014

NOTES: SATELLITE DATA IS BEING USED TO AUGMENT CLOUD COVER ABOVE
       12000 FEET.
       "FAIR" INDICATES FEW OR NO CLOUDS BELOW 12,000 FEET WITH NO
       SIGNIFICANT WEATHER AND/OR OBSTRUCTIONS TO VISIBILITY.

  * THESE STATIONS DO NOT REPORT WEATHER SUCH AS RAIN...SNOW OR FOG.

NEZ001>004-019>022-054>056-312200-
NEBRASKA PANHANDLE

CITY           SKY/WX    TMP DP  RH WIND       PRES   REMARKS
SCOTTSBLUFF    SUNNY     86  45  23 S10       30.18F
ALLIANCE       SUNNY     86  42  21 N10       30.17F
CHADRON        SUNNY     87  46  24 E8G16     30.14F
SIDNEY         SUNNY     86  44  23 VRB7      30.20F
$$

NEZ057>060-069>072-079>082-312200-
SOUTHWEST NEBRASKA

CITY           SKY/WX    TMP DP  RH WIND       PRES   REMARKS
NORTH PLATTE   MOSUNNY   88  50  27 NW8       30.08F
IMPERIAL       SUNNY     84  49  29 CALM      30.14F
MCCOOK         MOSUNNY   88  50  27 W7        30.09F
$$

NEZ005>010-023>029-035>040-094-312200-
NORTH CENTRAL NEBRASKA

CITY           SKY/WX    TMP DP  RH WIND       PRES   REMARKS
VALENTINE      SUNNY     87  50  27 N9G18     30.10S
AINSWORTH      MOSUNNY   85  50  30 N12G17    30.09F
BROKEN BOW     SUNNY     88  55  32 NW14      30.06S
ORD            SUNNY     90  53  28 N10       30.01F
$$

NEZ041-046>049-061>064-073>077-083>087-312200-
SOUTH CENTRAL NEBRASKA

CITY           SKY/WX    TMP DP  RH WIND       PRES   REMARKS
GRAND ISLAND   LGT RAIN  85  59  41 SW17      30.03S
AURORA         MOSUNNY   85  61  43 SW13      30.02F
HASTINGS       PTSUNNY   83  52  34 W9G29     30.05S
KEARNEY *      PTSUNNY   84  61  45 S8        30.04F
YORK           MOSUNNY   84  63  48 S14       30.03F
$$

NEZ011>018-030>034-042>045-312200-
NORTHEAST NEBRASKA

CITY           SKY/WX    TMP DP  RH WIND       PRES   REMARKS
NORFOLK        SUNNY     84  61  45 SE7       30.02F
ALBION         MOSUNNY   85  55  35 NW5       30.00F
BLAIR          SUNNY     82  54  38 S3        30.05F
COLUMBUS *     MOSUNNY   63  61  94 S9        30.03R
FREMONT        MOSUNNY   86  56  36 S8        30.04F
TEKAMAH        MOSUNNY   84  58  40 E10       30.04F
$$

NEZ050>053-065>068-078-088>093-312200-
SOUTHEAST NEBRASKA

CITY           SKY/WX    TMP DP  RH WIND       PRES   REMARKS
LINCOLN        SUNNY     86  56  35 SE10G17   30.04F
OMAHA EPPLEY   MOSUNNY   84  55  36 SE9       30.04F
BEATRICE       SUNNY     85  57  38 CALM      30.04F
FALLS CITY     SUNNY     86  53  32 VRB5      30.05F
NEBRASKA CITY  SUNNY     84  51  32 S7        30.05F
PLATTSMOUTH    SUNNY     84  52  32 S5        30.04F
$$

NEZ044-045-051>053-067-312200-
OMAHA AREA

CITY           SKY/WX    TMP DP  RH WIND       PRES   REMARKS
OMAHA EPPLEY   MOSUNNY   84  55  36 SE9       30.04F
BLAIR          SUNNY     82  54  38 S3        30.05F
FREMONT        MOSUNNY   86  56  36 S8        30.04F
OFFUTT AFB     SUNNY     85  58  39 SE9       30.03F
PLATTSMOUTH    SUNNY     84  52  32 S5        30.04F
WAHOO          MOCLDY    86  55  34 SW8G16    30.02F
$$


USA.gov is the U.S. government's official web portal to all federal, state and local government web resources and services.